Pitkin, LA

7:41 AM CST on February 07, 2016 (GMT -0600)
Fort Polk

Weather History for KBKB - June, 2014

Change the Weather History Date:

Sunday, June 22, 2014

  Actual Average (KPOE) Record (KPOE)
Temperature  
Mean Temperature 83 °F -  
Max Temperature 91 °F 86 °F 98 °F (1998)
Min Temperature 75 °F 69 °F 68 °F (2001)
Cooling Degree Days 18    
Growing Degree Days 33 (Base 50)    
Moisture  
Dew Point 72 °F    
Average Humidity 75    
Maximum Humidity 90    
Minimum Humidity 48    
Precipitation  
Precipitation 0.01 in - - ()
Sea Level Pressure  
Sea Level Pressure 30.00 in    
Wind  
Wind Speed 1 mph (SSE)    
Max Wind Speed 5 mph    
Max Gust Speed -    
Visibility 10 miles    
Events Rain    
Averages and records for this station are not official NWS values.
T = Trace of Precipitation, MM = Missing Value Source: NWS Daily Summary

Daily Weather History Graph

Daily Weather History Graph

Search for Another Location

Airport or City:

Trip Planner

Search our weather history database for the weather conditions in past years. The results will help you decide how hot, cold, wet, or windy it might be!

Date:

Astronomy

Jun. 22, 2014 Rise Set
Actual Time 6:08 AM CDT 8:18 PM CDT
Civil Twilight 5:40 AM CDT 8:46 PM CDT
Nautical Twilight 5:06 AM CDT 9:20 PM CDT
Astronomical Twilight 4:30 AM CDT 9:56 PM CDT
Moon 2:43 AM CDT (6/22) 4:11 PM CDT (6/22)
Length of Visible Light 15h 05m
Length of Day
14h 09m
Waning Crescent, 20% of the Moon is Illuminated
Jun 22
Waning Crescent
Jun 27
New
Jul 5
First Quarter
Jul 12
Full
Jul 18
Last Quarter

Hourly Weather History & Observations

Time (CDT) Temp. Heat Index Dew Point Humidity Pressure Visibility Wind Dir Wind Speed Gust Speed Precip Events Conditions
12:54 AM 75.9 °F - 72.0 °F 87% 30.02 in 10.0 mi Calm Calm - N/A   Clear
1:54 AM 75.9 °F - 72.0 °F 87% 30.01 in 10.0 mi Calm Calm - N/A   Clear
2:54 AM 75.0 °F - 72.0 °F 90% 30.01 in 7.0 mi Calm Calm - N/A   Clear
3:54 AM 75.0 °F - 72.0 °F 90% 30.01 in 9.0 mi Calm Calm - N/A   Clear
4:54 AM 75.0 °F - 71.1 °F 87% 30.01 in 8.0 mi Calm Calm - N/A   Clear
5:54 AM 75.9 °F - 72.0 °F 87% 30.03 in 10.0 mi Calm Calm - N/A   Clear
6:54 AM 77.0 °F - 73.0 °F 88% 30.04 in 9.0 mi Calm Calm - N/A   Clear
7:54 AM 80.1 °F 84.5 °F 73.9 °F 81% 30.04 in 10.0 mi Variable 3.5 mph - N/A   Clear
8:54 AM 84.0 °F 91.2 °F 73.9 °F 72% 30.05 in 10.0 mi Variable 3.5 mph - N/A   Partly Cloudy
9:54 AM 84.0 °F 90.2 °F 73.0 °F 69% 30.05 in 10.0 mi Variable 3.5 mph - N/A   Scattered Clouds
10:54 AM 86.0 °F 92.2 °F 72.0 °F 63% 30.04 in 10.0 mi Variable 4.6 mph - N/A   Partly Cloudy
11:54 AM 88.0 °F 94.7 °F 72.0 °F 59% 30.04 in 10.0 mi Variable 4.6 mph - N/A   Partly Cloudy
12:54 PM 89.1 °F 96.0 °F 72.0 °F 57% 30.03 in 10.0 mi Variable 3.5 mph - N/A   Scattered Clouds
1:54 PM 89.1 °F 94.1 °F 70.0 °F 53% 30.00 in 10.0 mi Variable 3.5 mph - N/A   Scattered Clouds
2:54 PM 91.0 °F 98.2 °F 72.0 °F 53% 29.98 in 10.0 mi Variable 4.6 mph - N/A   Scattered Clouds
3:54 PM 90.0 °F 93.6 °F 68.0 °F 48% 29.96 in 10.0 mi Variable 4.6 mph - N/A   Partly Cloudy
4:54 PM 87.1 °F 92.8 °F 71.1 °F 59% 29.96 in 10.0 mi Variable 4.6 mph - N/A   Clear
5:54 PM 84.9 °F 91.4 °F 73.0 °F 67% 29.96 in 10.0 mi Calm Calm - N/A   Partly Cloudy
6:54 PM 82.9 °F 89.4 °F 73.9 °F 74% 29.96 in 10.0 mi Calm Calm - 0.00 in   Clear
7:54 PM 79.0 °F - 73.9 °F 84% 29.98 in 9.0 mi Calm Calm - 0.00 in Rain Light Rain
8:54 PM 78.1 °F - 73.9 °F 87% 29.97 in 10.0 mi SSE 3.5 mph - 0.01 in   Scattered Clouds
9:54 PM 78.1 °F - 73.9 °F 87% 29.98 in 10.0 mi Calm Calm - N/A   Scattered Clouds
10:54 PM 78.1 °F - 73.9 °F 87% 29.99 in 9.0 mi Calm Calm - N/A   Clear
11:54 PM 77.0 °F - 73.9 °F 90% 29.99 in 8.0 mi Calm Calm - N/A   Clear